User: anonymous   Login
Location: Unspecified
(0.0000°N, 0.0000°E)
Time: 18:51:37
(UTC+00:00)
Language:

DX 1 - Orbit

View from above orbital plane
View from above orbital plane
View from above satellite
View from above satellite

Ground track
Ground track

The orbit data is extracted from the following two-line orbital elements,

1 40071U 14037C   19341.40014417  .00000060  00000-0  15259-4 0  9998
2 40071  98.4443 144.2788 0009281  41.0937 319.0973 14.81314616292677
Epoch (UTC): 07 December 2019 09:36:12
Eccentricity: 0.0009281
inclination: 98.4443°
perigee height: 618 km
apogee height: 631 km
right ascension of ascending node: 144.2788°
argument of perigee: 41.0937°
revolutions per day: 14.81314616
mean anomaly at epoch: 319.0973°
orbit number at epoch: 29267

The dashed part of the orbit path shows where the satellite is in the earth's shadow,  

DLR